Orbital Elements at Epoch 2459000.5 (2020-May-31.0) TDB
Reference: JPL 24 (heliocentric ecliptic J2000)
Element | Value | Uncertainty (1-sigma) | Units |
e | .1124397483782724 | 4.3113e-08 | |
a | 2.353466030861186 | 9.0224e-09 | au |
q | 2.088842902534343 | 1.0029e-07 | au |
i | 4.226414954227725 | 3.5551e-06 | deg |
node | 292.1785931294521 | 5.9812e-05 | deg |
peri | 239.4868591083443 | 6.1904e-05 | deg |
M | 166.0862724154864 | 1.8575e-05 | deg |
tp | 2458392.096693731112 (2018-Sep-30.59669373) | 6.637e-05 | TDB |
period | 1318.743488377412 3.61 | 7.5834e-06 2.076e-08 | d yr |
n | .2729871299254304 | 1.5698e-09 | deg/d |
Q | 2.618089159188029 | 1.0037e-08 | au |
|
| | Orbit Determination Parameters
Additional Information
|